CW6876 Weather Reports


time (UTC)temp
C
wind
direction
speed
KPH
gust
KPH
rain 1hr
cm
rain 24hr
cm
rain mn
cm
humidity
%
barometer
mb
20260505121539 15 197 0.0 11.3 0.00 0.00 0.00 69 1012.4
20260505120018 14 134 3.2 6.4 0.00 0.00 0.00 73 1012.1
20260505114556 13 141 0.0 6.4 0.00 0.00 0.00 76 1012.1
20260505113015 12 133 0.0 3.2 0.00 0.00 0.00 79 1012.0
20260505111554 12 186 0.0 4.8 0.00 0.00 0.00 82 1011.9
20260505101503 12 0.0 0.0 0.00 0.00 0.00 79 1011.4
20260505100043 12 0.0 0.0 0.00 0.00 0.00 79 1011.4
20260505094508 12 0.0 0.0 0.00 0.00 0.00 78 1011.3
20260505093058 13 0.0 0.0 0.00 0.00 0.00 77 1011.1
20260505091518 13 233 0.0 3.2 0.00 0.00 0.00 77 1011.1
20260505090059 13 204 0.0 1.6 0.00 0.00 0.00 76 1011.2
20260505084531 13 204 0.0 3.2 0.00 0.00 0.00 76 1011.0
20260505083109 13 184 0.0 0.0 0.00 0.00 0.00 77 1010.9
20260505081541 13 155 0.0 0.0 0.00 0.00 0.00 77 1011.1
20260505080008 13 188 0.0 0.0 0.00 0.00 0.00 77 1010.9
20260505074558 13 207 0.0 0.0 0.00 0.00 0.00 75 1010.8
20260505073027 13 205 0.0 0.0 0.00 0.00 0.00 74 1010.9
20260505071609 13 161 0.0 0.0 0.00 0.00 0.00 73 1010.9
20260505070040 13 183 0.0 0.0 0.00 0.00 0.00 71 1011.3
20260505064507 13 244 0.0 0.0 0.00 0.00 0.00 71 1011.2
20260505063049 13 208 0.0 0.0 0.00 0.00 0.00 70 1011.2
20260505061518 14 221 0.0 6.4 0.00 0.00 0.00 69 1011.2
20260505060057 14 314 0.0 6.4 0.00 0.00 0.00 68 1011.1
20260505054527 14 155 0.0 4.8 0.00 0.00 0.00 67 1011.0
20260505053103 14 192 0.0 0.0 0.00 0.00 0.00 66 1011.2
20260505051537 13 200 0.0 3.2 0.00 0.00 0.00 67 1011.2
20260505041604 15 296 1.6 6.4 0.00 0.00 0.00 60 1011.3
20260505040036 15 40 1.6 8.0 0.00 0.00 0.00 60 1011.1
20260505034503 15 160 3.2 6.4 0.00 0.00 0.00 59 1010.8
20260505033045 14 181 0.0 6.4 0.00 0.00 0.00 62 1011.0
20260505031514 13 195 0.0 3.2 0.00 0.00 0.00 64 1011.0
20260505030056 15 277 0.0 8.0 0.00 0.00 0.00 56 1011.1
20260505024521 15 348 0.0 4.8 0.00 0.00 0.00 57 1011.0
20260505023105 15 200 0.0 6.4 0.00 0.00 0.00 61 1011.0
20260505021532 15 193 0.0 3.2 0.00 0.00 0.00 57 1011.4
20260505020001 15 335 0.0 4.8 0.00 0.00 0.00 58 1011.3
20260505014542 15 139 0.0 6.4 0.00 0.00 0.00 56 1011.2
20260505013015 16 197 0.0 4.8 0.00 0.00 0.00 52 1011.2
20260505011620 16 143 0.0 4.8 0.00 0.00 0.00 53 1011.2
20260505010023 15 211 0.0 0.0 0.00 0.00 0.00 58 1011.1
20260505004608 16 211 0.0 0.0 0.00 0.00 0.00 54 1011.0
20260505003036 16 183 0.0 0.0 0.00 0.00 0.00 51 1010.9
20260505001505 17 207 0.0 4.8 0.00 0.00 0.00 49 1010.8
20260505000057 17 252 0.0 9.7 0.00 0.00 0.00 47 1010.6
20260504234514 18 186 0.0 8.0 0.00 0.00 0.00 45 1010.7
20260504233104 18 97 0.0 9.7 0.00 0.00 0.00 42 1010.7
20260504231527 18 210 3.2 9.7 0.00 0.00 0.00 42 1010.6
20260504230109 19 218 3.2 12.9 0.00 0.00 0.00 42 1010.6
20260504224532 19 159 1.6 14.5 0.00 0.00 0.00 41 1010.7
20260504223009 19 277 3.2 14.5 0.00 0.00 0.00 41 1010.7
20260504221548 19 138 1.6 11.3 0.00 0.00 0.00 40 1010.7
20260504220036 19 169 3.2 11.3 0.00 0.00 0.00 40 1010.8
20260504214615 20 186 0.0 11.3 0.00 0.00 0.00 41 1010.8
20260504213025 20 155 3.2 8.0 0.00 0.00 0.00 40 1010.8
20260504211604 20 155 1.6 11.3 0.00 0.00 0.00 41 1010.9
20260504210032 20 113 1.6 9.7 0.00 0.00 0.00 41 1010.9
20260504204610 20 205 3.2 11.3 0.00 0.00 0.00 42 1010.7
20260504203041 20 163 4.8 12.9 0.00 0.00 0.00 40 1010.8
20260504201506 20 114 3.2 12.9 0.00 0.00 0.00 42 1011.0
20260504200049 20 192 3.2 12.9 0.00 0.00 0.00 41 1011.1
20260504194522 20 136 1.6 9.7 0.00 0.00 0.00 41 1011.3
20260504193104 20 118 4.8 20.9 0.00 0.00 0.00 42 1011.3
20260504191529 20 297 3.2 12.9 0.00 0.00 0.00 40 1011.5
20260504190117 20 4 3.2 22.5 0.00 0.00 0.00 39 1011.7
20260504184552 20 159 3.2 14.5 0.00 0.00 0.00 40 1011.9
20260504183008 20 108 3.2 12.9 0.00 0.00 0.00 37 1012.2
20260504181548 20 276 6.4 24.1 0.00 0.00 0.00 41 1012.4
20260504180016 19 149 3.2 12.9 0.00 0.00 0.00 43 1012.7
20260504174554 20 314 0.0 14.5 0.00 0.00 0.00 42 1012.8
20260504173031 19 141 4.8 12.9 0.00 0.00 0.00 41 1013.0
20260504171503 19 163 3.2 11.3 0.00 0.00 0.00 40 1013.2